Regional Weather Roundup
Issued by NWS

Home | Current Version | Previous Version | Text Only | Print | Product List | Glossary Off
Versions: 1 2 3 4 5 6 7 8 9 10 11 12 13 14 15 16 17 18 19 20 21 22 23 24 25 26 27 28 29 30 31 32 33 34 35 36 37 38 39 40 41 42 43 44 45 46 47 48 49 50

000
ASUS43 KFSD 262110
RWRSD

WEATHER ROUNDUP FOR SOUTH DAKOTA
NATIONAL WEATHER SERVICE SIOUX FALLS SD
300 PM CST FRI DEC 26 2014

NOTE: "FAIR" INDICATES FEW OR NO CLOUDS BELOW 12,000 FEET WITH NO
SIGNIFICANT WEATHER AND/OR OBSTRUCTIONS TO VISIBILITY.


SDZ001>005-009-010-012>017-262200-
NORTHWEST AND NORTH CENTRAL SOUTH DAKOTA

CITY           SKY/WX    TMP DP  RH WIND       PRES   REMARKS
BUFFALO          N/A     22  12  65 NW6       30.01S WCI  14
FAITH            N/A     20   9  62 NW10      30.10S WCI   9
MOBRIDGE       CLOUDY    20  12  71 N7        30.14R WCI  11
$$

SDZ012>016-024>037-041>051-057-063-072>074-262200-
SOUTHWEST AND SOUTH CENTRAL SOUTH DAKOTA

CITY           SKY/WX    TMP DP  RH WIND       PRES   REMARKS
RAPID CTY ARPT CLOUDY    18  13  80 NE7       30.07S WCI   9
PIERRE         CLOUDY    21  16  81 N14       30.12S WCI   8
CUSTER         CLOUDY    16  11  80 VRB5      29.90S WCI   9
ELLSWORTH AFB  CLOUDY    18  14  86 NE5       30.07  WCI  11
PHILIP         FLURRIES  21  14  74 N13       30.12S WCI   9
PINE RIDGE     CLOUDY    19  12  74 N9        30.05S WCI   8
SPEARFISH      CLOUDY    18  14  86 N5        30.04S WCI  11
WINNER         CLOUDY    23  17  78 N18       30.10R WCI   9
$$

SDZ004>011-016>023-039-040-262200-
NORTHEAST SOUTH DAKOTA

CITY           SKY/WX    TMP DP  RH WIND       PRES   REMARKS
ABERDEEN       CLOUDY    23  17  78 N14       30.15S WCI  11
WATERTOWN      CLOUDY    21  17  84 N17       30.06S WCI   7
SISSETON         N/A     23  19  85 NE16      30.13R WCI  10
$$

SDZ017-020-022-023-036>040-048>070-262200-
SOUTHEAST SOUTH DAKOTA

CITY           SKY/WX    TMP DP  RH WIND       PRES   REMARKS
SIOUX FALLS    CLOUDY    28  22  78 N14       30.04R WCI  17
HURON          CLOUDY    24  20  84 N17       30.11F WCI  11
CHAMBERLAIN    CLOUDY    22  17  81 N10       30.11R WCI  11
MITCHELL       MIX PCPN  25  21  85 N15       30.11R FOG     WCI  13
YANKTON        PTSUNNY   27  23  86 N17       30.05F WCI  14
$$

ABBREVIATIONS USED IN REMARKS
   TC - TEMPERATURE IN CELSIUS
  WCI - WIND CHILL INDEX
   HX - HEAT INDEX
  VSB - VISIBILITY




USA.gov is the U.S. government's official web portal to all federal, state and local government web resources and services.